Tracking 18630 objects as of 26-May-2017
HD Live streaming from Space Station
objects crossing your sky now

KOMPSAT 3

Track KOMPSAT 3 now!
10-day predictions
KOMPSAT 3 is classified as:


NORAD ID: 38338
Int'l Code: 2012-025B
Perigee: 687.4 km
Apogee: 703.1 km
Inclination: 98.1 °
Period: 98.5 minutes
Semi major axis: 7066 km
RCS: 5.2993 m2 (large)
Launch date: May 17, 2012
Source: South Korea (SKOR)
Launch site: TANEGASHIMA SPACE CENTER (TNSTA)
Uplink (MHz):
Downlink (MHz):
Beacon (MHz):
Mode:
Call sign:
Status:

Your satellite tracking list
Your tracking list is empty





NASA's NSSDC Master Catalog

Two Line Element Set (TLE):
1 38338U 12025B   17146.43374982 +.00000069 +00000-0 +23267-4 0  9993
2 38338 098.1378 084.9321 0011161 043.1835 317.0230 14.61567931268009
Source of the keplerian elements: AFSPC